DW1549 Fauske NO current weather conditions

sailwx.info

Wind from 146 at 9 knots gusting 14

Air temperature -2.8° C
Dewpoint -6.8° C

Last reported at 2014-Dec-18 22:48 UTC.
Time now 2014-Dec-18 23:07 UTC

Location: N 67°16' E 015°25'.
View on Google Maps.

See reports from other nearby stations

  
Tides and Currents Weather Stations Pressure Air Temp Water Temp Dewpoint Dewpoint Depression Visibility Wind Speed Wind Dir Waves Ship Positions
date/time (UTC)wind fromknots sea level pressurealtimeterstation pressurevisibilityair tempwater tempwave heightnotes
2014-Dec-18 22:48 146 9 gusting 14 -2.8
2014-Dec-18 22:38 157 6 gusting 11 -2.8
2014-Dec-18 22:29 157 5 gusting 12 -2.8
2014-Dec-18 22:19 175 6 gusting 13 -2.8
2014-Dec-18 22:08 166 6 gusting 13 -3.3
2014-Dec-18 21:59 170 4 gusting 11 -2.8
2014-Dec-18 21:49 166 5 gusting 12 -2.8
2014-Dec-18 21:38 166 4 gusting 10 -2.8
2014-Dec-18 21:29 166 4 gusting 10 -2.8
2014-Dec-18 21:19 159 6 gusting 12 -2.8
2014-Dec-18 21:09 163 10 gusting 13 -2.8
2014-Dec-18 20:58 165 6 gusting 11 -2.8
2014-Dec-18 20:48 159 4 gusting 13 -2.2
2014-Dec-18 20:39 151 6 gusting 15 -2.2
2014-Dec-18 20:29 123 10 gusting 15 -2.8
2014-Dec-18 20:18 146 2 gusting 10 -2.8
2014-Dec-18 20:08 158 3 gusting 13 -2.8
2014-Dec-18 19:59 137 6 gusting 14 -2.8
2014-Dec-18 19:49 118 7 gusting 13 -2.8
2014-Dec-18 19:38 133 6 gusting 13 -2.8
2014-Dec-18 19:28 126 6 gusting 15 -2.8
2014-Dec-18 19:18 126 7 gusting 17 -2.8
2014-Dec-18 19:08 131 14 gusting 22 -2.2
2014-Dec-18 18:58 124 11 gusting 19 -2.2
2014-Dec-18 18:48 146 10 gusting 19 -2.8
2014-Dec-18 18:38 140 12 gusting 20 -2.2
2014-Dec-18 18:28 128 11 gusting 19 -2.2
2014-Dec-18 18:18 138 11 gusting 22 -2.2
2014-Dec-18 18:08 149 11 gusting 22 -2.2
2014-Dec-18 17:58 119 13 gusting 22 -2.2
2014-Dec-18 17:48 120 10 gusting 19 -2.2
2014-Dec-18 17:38 148 5 gusting 10 -2.2
2014-Dec-18 17:28 155 5 gusting 15 -2.2
2014-Dec-18 17:18 143 5 gusting 13 -2.2
2014-Dec-18 17:08 187 6 gusting 13 -2.2
2014-Dec-18 16:58 172 4 gusting 11 -2.2
2014-Dec-18 16:48 118 6 gusting 13 -2.2
2014-Dec-18 16:38 149 7 gusting 15 -2.2
2014-Dec-18 16:28 118 9 gusting 14 -2.2
2014-Dec-18 16:18 123 3 gusting 11 -2.2
2014-Dec-18 16:08 130 5 gusting 17 -1.7
2014-Dec-18 15:58 123 12 gusting 17 -1.7
2014-Dec-18 15:48 123 13 gusting 19 -1.7
2014-Dec-18 15:38 132 11 gusting 19 -1.7
2014-Dec-18 15:28 126 11 gusting 19 -1.7
2014-Dec-18 15:18 132 11 gusting 20 -1.7
2014-Dec-18 15:08 126 12 gusting 19 -2.2
2014-Dec-18 14:58 131 13 gusting 19 -2.2
2014-Dec-18 14:48 121 12 gusting 26 -2.2
2014-Dec-18 14:38 121 10 gusting 19 -2.2
2014-Dec-18 14:28 121 12 gusting 19 -2.2
2014-Dec-18 14:18 131 13 gusting 19 -2.8
2014-Dec-18 14:08 115 13 gusting 22 -2.8
2014-Dec-18 13:58 114 13 gusting 20 -2.8
2014-Dec-18 13:48 122 12 gusting 18 -2.2
2014-Dec-18 13:38 142 9 gusting 14 -2.8
2014-Dec-18 13:28 120 12 gusting 18 -2.8
2014-Dec-18 13:18 131 7 gusting 17 -2.8
2014-Dec-18 13:08 112 12 gusting 17 -2.8
2014-Dec-18 12:58 136 10 gusting 18 -2.2
2014-Dec-18 12:48 131 10 gusting 17 -2.2
2014-Dec-18 12:38 126 11 gusting 18 -2.2
2014-Dec-18 12:28 123 10 gusting 19 -2.2
2014-Dec-18 12:19 120 12 gusting 18 -2.2
2014-Dec-18 12:08 126 13 gusting 19 -2.2
2014-Dec-18 11:58 132 10 gusting 18 -2.2
2014-Dec-18 11:48 115 12 gusting 17 -2.2
2014-Dec-18 11:38 121 10 gusting 19 -2.2
2014-Dec-18 11:28 124 12 gusting 19 -2.2
2014-Dec-18 11:18 134 12 gusting 19 -2.2
2014-Dec-18 11:08 121 10 gusting 19 -2.2
2014-Dec-18 10:58 123 11 gusting 18 -2.2
2014-Dec-18 10:48 124 10 gusting 17 -2.2
2014-Dec-18 10:38 122 7 gusting 19 -2.2
2014-Dec-18 10:28 105 8 gusting 12 -2.2
2014-Dec-18 10:18 131 9 gusting 13 -2.2
2014-Dec-18 10:08 149 2 gusting 10 -2.8
2014-Dec-18 09:58 156 1 gusting 12 -2.2
2014-Dec-18 09:48 119 8 gusting 15 -2.2
2014-Dec-18 09:38 100 8 gusting 14 -2.2
2014-Dec-18 09:29 118 2 gusting 8 -2.8
2014-Dec-18 09:19 172 0 gusting 6 -2.8
2014-Dec-18 09:09 184 4 gusting 10 -2.8
2014-Dec-18 08:59 182 5 gusting 10 -3.3
2014-Dec-18 08:49 187 5 gusting 10 -3.3
2014-Dec-18 08:39 177 0 gusting 8 -2.8
2014-Dec-18 08:29 175 1 gusting 10 -2.8
2014-Dec-18 08:19 182 4 gusting 8 -2.8
2014-Dec-18 08:09 167 5 gusting 11 -2.8
2014-Dec-18 07:59 170 1 gusting 10 -2.8
2014-Dec-18 07:49 166 4 gusting 10 -2.8
2014-Dec-18 07:39 165 4 gusting 10 -2.2
2014-Dec-18 07:28 186 4 gusting 8 -2.2
2014-Dec-18 07:19 128 6 gusting 10 -2.2
2014-Dec-18 07:09 172 5 gusting 10 -2.2
2014-Dec-18 06:59 153 4 gusting 12 -2.2
2014-Dec-18 06:49 134 6 gusting 15 -1.7
2014-Dec-18 05:49 134 8 gusting 13 -2.2
2014-Dec-18 05:39 133 6 gusting 13 -2.8
2014-Dec-18 05:29 163 3 gusting 8 -2.8
2014-Dec-18 05:18 163 2 gusting 10 -2.8
2014-Dec-18 05:09 170 5 gusting 11 -2.8
2014-Dec-18 04:59 163 5 gusting 10 -2.8
2014-Dec-18 04:49 190 5 gusting 11 -2.8
2014-Dec-18 04:39 182 6 gusting 12 -2.2
2014-Dec-18 04:29 167 7 gusting 12 -2.2
2014-Dec-18 04:19 183 6 gusting 10 -2.2
2014-Dec-18 04:09 188 8 gusting 11 -2.2
2014-Dec-18 03:59 157 5 gusting 13 -2.2
2014-Dec-18 03:49 157 6 gusting 12 -2.2
2014-Dec-18 03:39 185 6 gusting 11 -1.7
2014-Dec-18 03:28 196 7 gusting 13 -1.7
2014-Dec-18 03:19 161 4 gusting 10 -1.7
2014-Dec-18 03:08 165 1 gusting 10 -2.2
2014-Dec-18 02:58 155 6 gusting 10 -2.2
2014-Dec-18 02:49 171 2 gusting 8 -2.2
2014-Dec-18 02:38 137 0 gusting 8 -1.7
2014-Dec-18 02:28 157 3 gusting 8 -1.7
2014-Dec-18 02:18 126 6 gusting 13 -1.7
2014-Dec-18 02:08 157 7 gusting 11 -1.7
2014-Dec-18 01:58 138 6 gusting 10 -2.2
2014-Dec-18 01:49 171 2 gusting 7 -2.2
2014-Dec-18 01:38 162 1 gusting 8 -2.2
2014-Dec-18 01:28 180 3 gusting 10 -2.2
2014-Dec-18 01:19 164 4 gusting 10 -2.2
2014-Dec-18 01:08 138 2 gusting 10 -2.2
2014-Dec-18 00:58 132 4 gusting 10 -2.2
2014-Dec-18 00:48 147 2 gusting 7 -2.8
2014-Dec-18 00:38 165 1 gusting 5 -3.3
2014-Dec-18 00:28 160 -2.8
2014-Dec-18 00:18 160 0 gusting 8 -2.8
2014-Dec-18 00:08 163 1 gusting 6 -3.9
2014-Dec-17 23:58 127 -3.9
2014-Dec-17 23:48 127 0 gusting 4 -3.9
2014-Dec-17 23:38 127 -3.9
2014-Dec-17 23:28 127 0 gusting 2 -4.4
2014-Dec-17 23:18 127 -4.4
2014-Dec-17 23:08 127 -4.4
2014-Dec-17 22:58 127 -4.4
2014-Dec-17 22:48 127 -4.4
2014-Dec-17 22:38 127 -4.4
2014-Dec-17 22:28 127 -4.4
2014-Dec-17 22:18 127 -4.4
2014-Dec-17 22:08 127 -5.0
2014-Dec-17 21:58 127 -5.0
2014-Dec-17 21:48 127 -5.0
2014-Dec-17 21:38 127 0 gusting 2 -5.0
2014-Dec-17 21:28 127 -5.0
2014-Dec-17 21:18 127 0 gusting 2 -4.4
2014-Dec-17 21:08 127 0 gusting 2 -4.4
2014-Dec-17 20:58 127 -4.4
2014-Dec-17 20:48 127 0 gusting 2 -5.0
2014-Dec-17 20:38 127 0 gusting 5 -5.0
2014-Dec-17 20:28 127 -5.0
2014-Dec-17 20:18 127 -5.0
2014-Dec-17 20:08 127 0 gusting 2 -5.0
2014-Dec-17 19:58 127 -4.4
2014-Dec-17 19:49 127 -4.4
2014-Dec-17 19:38 127 -4.4
2014-Dec-17 19:29 127 -4.4
2014-Dec-17 19:19 127 -4.4
2014-Dec-17 19:09 127 -4.4
2014-Dec-17 18:59 127 -3.9
2014-Dec-17 18:49 127 3 gusting 6 -3.9
2014-Dec-17 18:39 129 2 gusting 4 -3.9
2014-Dec-17 18:29 127 3 gusting 6 -4.4
2014-Dec-17 18:19 103 1 gusting 2 -4.4
2014-Dec-17 18:09 103 2 gusting 6 -3.9
2014-Dec-17 17:59 103 4 gusting 6 -3.9
2014-Dec-17 17:49 103 -3.9
2014-Dec-17 17:39 103 -3.9
2014-Dec-17 17:29 103 -3.3
2014-Dec-17 17:19 103 2 gusting 8 -2.8
2014-Dec-17 17:09 128 1 gusting 7 -2.8
2014-Dec-17 16:59 123 3 gusting 10 -2.8
2014-Dec-17 16:49 092 3 gusting 8 -2.8
2014-Dec-17 16:39 098 0 gusting 5 -2.8
2014-Dec-17 16:29 076 0 gusting 6 -2.8
2014-Dec-17 16:19 082 -2.8
2014-Dec-17 16:09 071 0 gusting 6 -2.8
2014-Dec-17 15:59 087 -3.3
2014-Dec-17 15:49 087 -2.8
2014-Dec-17 15:39 087 0 gusting 7 -2.8
2014-Dec-17 15:29 085 0 gusting 2 -2.8
2014-Dec-17 15:19 085 -2.2
2014-Dec-17 15:09 085 0 gusting 6 -2.2
2014-Dec-17 14:59 101 0 gusting 8 -2.2
2014-Dec-17 14:49 092 0 gusting 2 -2.2
2014-Dec-17 14:39 092 0 gusting 6 -1.7
2014-Dec-17 14:29 091 1 gusting 4 -1.7
2014-Dec-17 14:19 092 2 gusting 5 -1.7
2014-Dec-17 14:09 348 -1.7
2014-Dec-17 13:59 348 -1.7
2014-Dec-17 13:49 348 -1.7
2014-Dec-17 13:39 348 -1.7
2014-Dec-17 13:29 346 -1.7
2014-Dec-17 13:19 346 -1.7
2014-Dec-17 13:09 346 -1.7
2014-Dec-17 12:59 346 -1.7
2014-Dec-17 12:49 346 -2.2
2014-Dec-17 12:39 346 -2.2
2014-Dec-17 12:29 346 -2.2
2014-Dec-17 12:19 346 0 gusting 4 -1.7
2014-Dec-17 12:09 346 -2.2
2014-Dec-17 11:59 346 -2.2
2014-Dec-17 11:49 007 -2.8
2014-Dec-17 11:39 -2.8
2014-Dec-17 11:29 -2.8
2014-Dec-17 11:19 007 -2.8
2014-Dec-17 11:09 -2.8
2014-Dec-17 10:59 -2.8
2014-Dec-17 10:49 -2.8
2014-Dec-17 10:39 -2.8
2014-Dec-17 10:28 -2.8
2014-Dec-17 10:19 -2.8
2014-Dec-17 10:09 -2.8
2014-Dec-17 09:59 007 -2.8
2014-Dec-17 09:49 -2.8
2014-Dec-17 09:39 -2.8
2014-Dec-17 09:29 007 -2.8
2014-Dec-17 09:19 346 -2.8
2014-Dec-17 09:09 346 -2.8
2014-Dec-17 08:59 346 -2.2
2014-Dec-17 08:49 346 -2.2
2014-Dec-17 08:39 346 -2.2
2014-Dec-17 08:29 346 -1.7
2014-Dec-17 08:19 346 -1.7
2014-Dec-17 08:09 346 -1.7
2014-Dec-17 07:59 346 -1.7
2014-Dec-17 07:49 346 -1.7
2014-Dec-17 07:39 346 -1.7
2014-Dec-17 07:29 346 -1.7
2014-Dec-17 07:19 346 -2.2
2014-Dec-17 07:09 346 -2.2
2014-Dec-17 06:59 346 -2.2
2014-Dec-17 06:49 346 -2.2
2014-Dec-17 06:39 346 -2.2
2014-Dec-17 06:29 346 -2.2
2014-Dec-17 06:19 346 -2.2
2014-Dec-17 06:09 346 -2.2
2014-Dec-17 05:59 346 -2.2
2014-Dec-17 05:49 346 -2.2
2014-Dec-17 05:39 346 -1.7
2014-Dec-17 05:29 346 1 gusting 5 -1.7
2014-Dec-17 05:19 -1.1
2014-Dec-17 05:09 -1.1
2014-Dec-17 04:59 -1.1
2014-Dec-17 04:49 -1.1
2014-Dec-17 04:39 -1.1
2014-Dec-17 04:29 024 1 gusting 2 -1.1
2014-Dec-17 04:19 024 -0.6
2014-Dec-17 04:09 024 -0.6
2014-Dec-17 03:59 024 -0.6
2014-Dec-17 03:49 024 -0.6
2014-Dec-17 03:39 024 -0.6
2014-Dec-17 03:29 024 -0.6
2014-Dec-17 03:19 024 -0.0
2014-Dec-17 03:09 024 -0.0
2014-Dec-17 02:59 024 -0.0
2014-Dec-17 02:49 024 -0.0
2014-Dec-17 02:39 024 -0.0
2014-Dec-17 02:29 022 -0.0
2014-Dec-17 02:19 022 -0.0
2014-Dec-17 02:09 022 -0.0
2014-Dec-17 01:59 022 1 gusting 6 0.6
2014-Dec-17 01:49 012 2 gusting 8 0.6
2014-Dec-17 01:39 009 1 gusting 6 -0.0
2014-Dec-17 01:29 336 -0.0
2014-Dec-17 01:19 336 -0.0
2014-Dec-17 01:09 336 -0.0
2014-Dec-17 00:59 336 0.6
2014-Dec-17 00:49 337 1 gusting 5 0.6
2014-Dec-17 00:39 065 0.6
2014-Dec-17 00:29 066 0.6
2014-Dec-17 00:19 073 0.6
2014-Dec-17 00:09 073 0.6
2014-Dec-16 23:59 073 0.6
2014-Dec-16 23:49 076 -0.0
2014-Dec-16 23:39 075 -0.0
2014-Dec-16 23:29 075 -0.0
2014-Dec-16 23:19 076 -0.0
2014-Dec-16 23:09 075 -0.0